When you browse on this site, cookies collect data to enhance your experience and personalize the content and advertising you see.
Visit our Privacy Policy to learn more. By continuing to use the site, you agree to this use of cookies and data.
  • In Sweden
  • List of Countries
  • For 7 days
  • Water Temperature
  • Weather Map
  • Weather Widgets
  • user-avatar
    Login

    Hourly Weather Tanger

    Today, 25 February, Tuesday

    Time Temperature Precipitation Wind Pressure Humidity
    00:00 +14°C° 0 mm 2 mps 767 mmHg 75%
    01:00 +14°C° 0 mm 2 mps 767 mmHg 76%
    02:00 +12°C° 0 mm 3 mps 766 mmHg 77%
    03:00 +12°C° 0 mm 3 mps 766 mmHg 78%
    04:00 +12°C° 0 mm 4 mps 766 mmHg 79%
    05:00 +11°C° 0 mm 4 mps 766 mmHg 79%
    06:00 +10°C° 0 mm 5 mps 767 mmHg 79%
    07:00 +12°C° 0 mm 5 mps 767 mmHg 78%
    08:00 +14°C° 0 mm 5 mps 767 mmHg 77%
    09:00 +15°C° 0 mm 6 mps 767 mmHg 76%
    10:00 +16°C° 0 mm 6 mps 767 mmHg 73%
    11:00 +17°C° 0 mm 6 mps 768 mmHg 70%
    12:00 +20°C° 0 mm 6 mps 768 mmHg 67%
    13:00 +20°C° 0 mm 6 mps 767 mmHg 66%
    14:00 +20°C° 0 mm 6 mps 766 mmHg 66%
    15:00 +20°C° 0 mm 5 mps 766 mmHg 65%
    16:00 +19°C° 0 mm 4 mps 766 mmHg 69%
    17:00 +17°C° 0 mm 4 mps 765 mmHg 73%
    18:00 +16°C° 0 mm 3 mps 765 mmHg 77%
    19:00 +14°C° 0 mm 3 mps 766 mmHg 80%
    20:00 +14°C° 0 mm 3 mps 766 mmHg 82%
    21:00 +13°C° 0 mm 3 mps 767 mmHg 84%
    22:00 +13°C° 0 mm 3 mps 767 mmHg 85%
    23:00 +13°C° 0 mm 3 mps 767 mmHg 85%

    Tomorrow, 26 February, Wednesday

    Time Temperature Precipitation Wind Pressure Humidity
    00:00 +13°C° 0 mm 3 mps 767 mmHg 86%
    01:00 +12°C° 0 mm 3 mps 767 mmHg 87%
    02:00 +12°C° 0 mm 3 mps 766 mmHg 87%
    03:00 +12°C° 0 mm 3 mps 766 mmHg 88%
    04:00 +12°C° 0 mm 3 mps 766 mmHg 87%
    05:00 +13°C° 0 mm 3 mps 766 mmHg 87%
    06:00 +13°C° 0 mm 3 mps 766 mmHg 86%
    07:00 +13°C° 0 mm 4 mps 766 mmHg 85%
    08:00 +14°C° 0 mm 4 mps 766 mmHg 84%
    09:00 +14°C° 0 mm 4 mps 767 mmHg 84%
    10:00 +15°C° 0 mm 4 mps 767 mmHg 80%
    11:00 +16°C° 0 mm 5 mps 767 mmHg 77%
    12:00 +16°C° 0 mm 5 mps 767 mmHg 73%
    13:00 +16°C° 0 mm 5 mps 766 mmHg 70%
    14:00 +16°C° 0 mm 5 mps 766 mmHg 68%
    15:00 +16°C° 0 mm 5 mps 765 mmHg 66%
    16:00 +15°C° 0 mm 5 mps 765 mmHg 68%
    17:00 +14°C° 0 mm 4 mps 765 mmHg 70%
    18:00 +13°C° 0 mm 4 mps 765 mmHg 72%
    19:00 +13°C° 0 mm 3 mps 765 mmHg 74%
    20:00 +12°C° 0 mm 3 mps 766 mmHg 76%
    21:00 +12°C° 0 mm 2 mps 766 mmHg 78%
    22:00 +12°C° 0 mm 2 mps 766 mmHg 78%
    23:00 +12°C° 0 mm 2 mps 766 mmHg 77%

    Day after tomorrow, 27 February, Thursday

    Time Temperature Precipitation Wind Pressure Humidity
    00:00 +12°C° 0 mm 2 mps 766 mmHg 77%
    01:00 +12°C° 0 mm 2 mps 766 mmHg 78%
    02:00 +12°C° 0 mm 2 mps 765 mmHg 79%
    03:00 +12°C° 0 mm 2 mps 765 mmHg 80%
    04:00 +12°C° 0 mm 2 mps 765 mmHg 81%
    05:00 +12°C° 0 mm 2 mps 765 mmHg 81%
    06:00 +12°C° 0 mm 2 mps 765 mmHg 82%
    07:00 +13°C° 0 mm 2 mps 765 mmHg 77%
    08:00 +14°C° 0 mm 1 mps 766 mmHg 73%
    09:00 +16°C° 0 mm 1 mps 766 mmHg 68%
    10:00 +18°C° 0 mm 1 mps 766 mmHg 62%
    11:00 +18°C° 0 mm 2 mps 766 mmHg 56%
    12:00 +19°C° 0 mm 2 mps 766 mmHg 50%
    13:00 +20°C° 0 mm 2 mps 765 mmHg 50%
    14:00 +20°C° 0 mm 2 mps 765 mmHg 50%
    15:00 +20°C° 0 mm 2 mps 764 mmHg 50%
    16:00 +19°C° 0 mm 2 mps 764 mmHg 54%
    17:00 +18°C° 0 mm 2 mps 764 mmHg 59%
    18:00 +17°C° 0 mm 2 mps 764 mmHg 64%
    19:00 +16°C° 0 mm 2 mps 764 mmHg 67%
    20:00 +15°C° 0 mm 2 mps 765 mmHg 70%
    21:00 +14°C° 0 mm 2 mps 765 mmHg 73%
    22:00 +14°C° 0 mm 2 mps 765 mmHg 73%
    23:00 +14°C° 0 mm 2 mps 765 mmHg 74%

    28 February, Friday

    Time Temperature Precipitation Wind Pressure Humidity
    00:00 +13°C° 0 mm 2 mps 765 mmHg 75%
    01:00 +13°C° 0 mm 2 mps 764 mmHg 74%
    02:00 +13°C° 0 mm 2 mps 764 mmHg 74%
    03:00 +12°C° 0 mm 3 mps 764 mmHg 73%
    04:00 +12°C° 0 mm 3 mps 763 mmHg 75%
    05:00 +13°C° 0 mm 2 mps 763 mmHg 77%
    06:00 +12°C° 0 mm 2 mps 763 mmHg 79%
    07:00 +14°C° 0 mm 2 mps 763 mmHg 75%
    08:00 +15°C° 0 mm 2 mps 764 mmHg 71%
    09:00 +16°C° 0 mm 2 mps 764 mmHg 67%
    10:00 +18°C° 0 mm 2 mps 764 mmHg 63%
    11:00 +19°C° 0 mm 2 mps 763 mmHg 58%
    12:00 +21°C° 0 mm 2 mps 763 mmHg 53%
    13:00 +21°C° 0 mm 2 mps 763 mmHg 54%
    14:00 +21°C° 0 mm 2 mps 762 mmHg 55%
    15:00 +21°C° 0 mm 2 mps 762 mmHg 56%
    16:00 +21°C° 0 mm 1 mps 762 mmHg 62%
    17:00 +20°C° 0 mm 1 mps 762 mmHg 68%
    18:00 +18°C° 0 mm 1 mps 762 mmHg 73%
    19:00 +16°C° 0 mm 1 mps 763 mmHg 76%
    20:00 +16°C° 0 mm 1 mps 763 mmHg 78%
    21:00 +15°C° 0 mm 2 mps 764 mmHg 81%
    22:00 +15°C° 0 mm 2 mps 764 mmHg 82%
    23:00 +14°C° 0 mm 2 mps 764 mmHg 84%

    29 February, Saturday

    Time Temperature Precipitation Wind Pressure Humidity
    00:00 +14°C° 0 mm 2 mps 764 mmHg 86%
    01:00 +13°C° 0 mm 3 mps 764 mmHg 87%
    02:00 +12°C° 0 mm 3 mps 763 mmHg 87%
    03:00 +12°C° 0 mm 3 mps 763 mmHg 88%
    04:00 +12°C° 0 mm 3 mps 764 mmHg 88%
    05:00 +12°C° 0 mm 3 mps 764 mmHg 88%
    06:00 +12°C° 0 mm 3 mps 764 mmHg 88%
    07:00 +13°C° 0 mm 3 mps 764 mmHg 85%
    08:00 +14°C° 0 mm 3 mps 765 mmHg 81%
    09:00 +16°C° 0 mm 3 mps 765 mmHg 78%
    10:00 +17°C° 0 mm 3 mps 765 mmHg 73%
    11:00 +18°C° 0 mm 3 mps 765 mmHg 68%
    12:00 +19°C° 0 mm 4 mps 766 mmHg 63%
    13:00 +19°C° 0 mm 4 mps 765 mmHg 63%
    14:00 +19°C° 0 mm 4 mps 765 mmHg 64%
    15:00 +19°C° 0 mm 4 mps 764 mmHg 65%
    16:00 +18°C° 0 mm 4 mps 764 mmHg 70%
    17:00 +17°C° 0 mm 3 mps 764 mmHg 75%
    18:00 +16°C° 0 mm 3 mps 764 mmHg 80%
    19:00 +16°C° 0 mm 3 mps 765 mmHg 82%
    20:00 +14°C° 0 mm 3 mps 765 mmHg 84%
    21:00 +14°C° 0 mm 2 mps 766 mmHg 85%
    22:00 +14°C° 0 mm 2 mps 765 mmHg 86%
    23:00 +14°C° 0 mm 2 mps 765 mmHg 86%

    1 March, Sunday

    Time Temperature Precipitation Wind Pressure Humidity
    00:00 +14°C° 0 mm 2 mps 765 mmHg 86%
    01:00 +14°C° 0 mm 2 mps 765 mmHg 86%
    02:00 +15°C° 0 mm 2 mps 765 mmHg 86%
    03:00 +15°C° 0 mm 2 mps 764 mmHg 86%
    04:00 +14°C° 0 mm 2 mps 764 mmHg 87%
    05:00 +14°C° 0 mm 2 mps 764 mmHg 88%
    06:00 +14°C° 0 mm 2 mps 764 mmHg 88%
    07:00 +14°C° 0 mm 3 mps 764 mmHg 86%
    08:00 +16°C° 0 mm 3 mps 765 mmHg 83%
    09:00 +15°C° 0 mm 4 mps 765 mmHg 81%
    10:00 +18°C° 0 mm 4 mps 765 mmHg 77%
    11:00 +19°C° 0 mm 4 mps 765 mmHg 74%
    12:00 +20°C° 0 mm 5 mps 765 mmHg 70%
    13:00 +20°C° 0 mm 5 mps 764 mmHg 70%
    14:00 +20°C° 0 mm 5 mps 764 mmHg 71%
    15:00 +20°C° 0 mm 5 mps 763 mmHg 71%
    16:00 +19°C° 0 mm 5 mps 763 mmHg 76%
    17:00 +17°C° 0 mm 5 mps 763 mmHg 80%
    18:00 +17°C° 0 mm 4 mps 763 mmHg 85%
    19:00 +17°C° 0 mm 4 mps 763 mmHg 87%
    20:00 +15°C° 0 mm 4 mps 764 mmHg 89%
    21:00 +14°C° 0 mm 4 mps 764 mmHg 92%
    22:00 +15°C° 0 mm 4 mps 764 mmHg 92%
    23:00 +15°C° 0 mm 4 mps 764 mmHg 92%
    Show more